﻿_id,日時,平均風速(m/s),平均風向,最大瞬間風速(m/s),最大風速時風向,気温(℃),湿度(%),10分間移動積算雨量(mm),1時間移動積算雨量(mm),日雨量(mm),累計雨量(mm)
1,2021-08-09T00:00:00,0.6,西,1.4,西,25.6,92,0,0,0.5,0.5
2,2021-08-09T00:01:00,0.5,西,1.4,西,25.6,92.1,0,0,0,0.5
3,2021-08-09T00:02:00,0.5,西南西,1.4,西,25.6,91.9,0,0,0,0.5
4,2021-08-09T00:03:00,0.5,西南西,1.4,西,25.5,91.9,0,0,0,0.5
5,2021-08-09T00:04:00,0.5,西南西,1.4,西,25.5,91.9,0,0,0,0.5
6,2021-08-09T00:05:00,0.4,西南西,1.4,西,25.6,92.1,0,0,0,0.5
7,2021-08-09T00:06:00,0.3,西南西,0.9,南西,25.6,92.2,0,0,0,0.5
8,2021-08-09T00:07:00,0.3,西南西,0.9,南西,25.5,92,0,0,0,0.5
9,2021-08-09T00:08:00,0.4,西,0.9,南西,25.6,92.3,0,0,0,0.5
10,2021-08-09T00:09:00,0.4,西,0.9,南西,25.5,92.1,0,0,0,0.5
11,2021-08-09T00:10:00,0.4,西,0.9,南西,25.5,92,0,0,0,0.5
12,2021-08-09T00:11:00,0.4,西北西,0.9,南西,25.5,92.3,0,0,0,0.5
13,2021-08-09T00:12:00,0.3,西北西,0.8,北北西,25.5,92.4,0,0,0,0.5
14,2021-08-09T00:13:00,0.4,西北西,1,南西,25.6,92.4,0,0,0,0.5
15,2021-08-09T00:14:00,0.4,西北西,1.4,西南西,25.7,92.5,0,0,0,0.5
16,2021-08-09T00:15:00,0.5,西,1.5,西南西,25.6,92.2,0,0,0,0.5
17,2021-08-09T00:16:00,0.6,西,1.6,西南西,25.6,92.1,0,0,0,0.5
18,2021-08-09T00:17:00,0.7,西,1.6,西南西,25.6,92.2,0,0,0,0.5
19,2021-08-09T00:18:00,0.7,西南西,1.7,南南西,25.6,92.1,0,0,0,0.5
20,2021-08-09T00:19:00,0.7,西南西,1.7,南南西,25.6,92.2,0,0,0,0.5
21,2021-08-09T00:20:00,0.7,西南西,1.7,南南西,25.7,92.3,0,0,0,0.5
22,2021-08-09T00:21:00,0.7,西南西,1.7,南南西,25.6,92,0,0,0,0.5
23,2021-08-09T00:22:00,0.8,西南西,1.7,南南西,25.5,92,0,0,0,0.5
24,2021-08-09T00:23:00,0.7,西南西,1.7,南南西,25.5,92,0,0,0,0.5
25,2021-08-09T00:24:00,0.7,西南西,1.7,南南西,25.6,92.3,0,0,0,0.5
26,2021-08-09T00:25:00,0.6,西南西,1.7,南南西,25.6,92.4,0,0,0,0.5
27,2021-08-09T00:26:00,0.6,西,1.7,南南西,25.6,92.3,0,0,0,0.5
28,2021-08-09T00:27:00,0.6,西,1.7,南南西,25.6,92.7,0,0,0,0.5
29,2021-08-09T00:28:00,0.6,西,1.5,西,25.5,92.8,0,0,0,0.5
30,2021-08-09T00:29:00,0.7,西,1.9,西,25.6,92.9,0,0,0,0.5
31,2021-08-09T00:30:00,0.8,西,1.9,西,25.5,92.7,0,0,0,0.5
32,2021-08-09T00:31:00,0.8,西,1.9,西,25.5,92.7,0,0,0,0.5
33,2021-08-09T00:32:00,0.9,西,1.9,西,25.4,92.9,0,0,0,0.5
34,2021-08-09T00:33:00,1,西,1.9,西,25.4,93.2,0,0,0,0.5
35,2021-08-09T00:34:00,1.1,西,1.9,西,25.5,93.8,0,0,0,0.5
36,2021-08-09T00:35:00,1.1,西,1.9,西,25.5,93.4,0,0,0,0.5
37,2021-08-09T00:36:00,1.2,西,1.9,西,25.4,93.2,0,0,0,0.5
38,2021-08-09T00:37:00,1.2,西,1.9,西,25.3,93.3,0,0,0,0.5
39,2021-08-09T00:38:00,1.2,西,1.9,西,25.3,93.4,0,0,0,0.5
40,2021-08-09T00:39:00,1.1,西北西,1.8,北西,25.3,93.6,0,0,0,0.5
41,2021-08-09T00:40:00,1.1,西北西,1.8,北西,25.3,93.6,0,0,0,0.5
42,2021-08-09T00:41:00,1.2,西北西,2.4,北西,25.2,93.7,0,0,0,0.5
43,2021-08-09T00:42:00,1.2,西北西,2.4,北西,25.2,93.9,0,0,0,0.5
44,2021-08-09T00:43:00,1.2,西北西,2.4,北西,25.2,93.9,0,0,0,0.5
45,2021-08-09T00:44:00,1.1,北西,2.4,北西,25.2,94.2,0,0,0,0.5
46,2021-08-09T00:45:00,1.1,北西,2.4,北西,25.2,94.4,0,0,0,0.5
47,2021-08-09T00:46:00,1.1,北西,2.4,北西,25.2,94.6,0,0,0,0.5
48,2021-08-09T00:47:00,1,北西,2.4,北西,25.2,94.6,0,0,0,0.5
49,2021-08-09T00:48:00,1,北西,2.4,北西,25.2,94.6,0,0,0,0.5
50,2021-08-09T00:49:00,0.9,北西,2.4,北西,25.1,94.6,0,0,0,0.5
51,2021-08-09T00:50:00,0.8,北北西,2.4,北西,25.3,94.9,0,0,0,0.5
52,2021-08-09T00:51:00,0.7,北西,2,北北西,25.4,95.1,0,0,0,0.5
53,2021-08-09T00:52:00,0.6,北西,2,北北西,25.5,95.2,0,0,0,0.5
54,2021-08-09T00:53:00,0.5,北西,1.2,西北西,25.5,95.1,0,0,0,0.5
55,2021-08-09T00:54:00,0.6,北西,1.3,西北西,25.5,94.6,0,0,0,0.5
56,2021-08-09T00:55:00,0.6,北西,1.3,西北西,25.5,94.4,0,0,0,0.5
57,2021-08-09T00:56:00,0.6,西北西,1.3,西北西,25.4,94,0,0,0,0.5
58,2021-08-09T00:57:00,0.5,西北西,1.3,西北西,25.3,94.1,0,0,0,0.5
59,2021-08-09T00:58:00,0.5,西北西,1.3,西北西,25.2,94,0,0,0,0.5
60,2021-08-09T00:59:00,0.5,西北西,1.3,西北西,25.1,93.8,0,0,0,0.5
61,2021-08-09T01:00:00,0.5,西北西,1.3,西北西,25,94.1,0,0,0,0.5
62,2021-08-09T01:01:00,0.5,西北西,1.3,西北西,25.1,94.7,0,0,0,0.5
63,2021-08-09T01:02:00,0.5,北西,1.3,西北西,25.1,95,0,0,0,0.5
64,2021-08-09T01:03:00,0.4,北西,1.3,西北西,25.1,94.9,0,0,0,0.5
65,2021-08-09T01:04:00,0.3,北北西,1.4,西北西,25.1,95.2,0,0,0,0.5
66,2021-08-09T01:05:00,0.4,北西,2,西北西,25.2,95.3,0,0,0,0.5
67,2021-08-09T01:06:00,0.3,北北西,2,西北西,25.3,95.4,0,0,0,0.5
68,2021-08-09T01:07:00,0.3,北北西,2,西北西,25.2,95.4,0,0,0,0.5
69,2021-08-09T01:08:00,0.4,北北西,2,西北西,25.2,95.3,0,0,0,0.5
70,2021-08-09T01:09:00,0.5,北西,2,西北西,25.2,95.3,0,0,0,0.5
71,2021-08-09T01:10:00,0.5,北西,2,西北西,25.2,95.2,0,0,0,0.5
72,2021-08-09T01:11:00,0.6,北西,2,西北西,25.1,95.2,0,0,0,0.5
73,2021-08-09T01:12:00,0.7,西北西,2,西北西,25.2,95.3,0,0,0,0.5
74,2021-08-09T01:13:00,0.7,西北西,2,西北西,25.3,95.4,0,0,0,0.5
75,2021-08-09T01:14:00,0.7,西,2,西北西,25.4,95.4,0,0,0,0.5
76,2021-08-09T01:15:00,0.7,西,1.6,西,25.4,95.3,0,0,0,0.5
77,2021-08-09T01:16:00,0.8,西,1.6,西,25.4,95.1,0,0,0,0.5
78,2021-08-09T01:17:00,0.9,西,1.6,西,25.4,95.1,0,0,0,0.5
79,2021-08-09T01:18:00,0.9,西,1.6,西,25.4,95.1,0,0,0,0.5
80,2021-08-09T01:19:00,0.9,西,1.6,西,25.5,95.3,0,0,0,0.5
81,2021-08-09T01:20:00,0.8,西,1.6,西,25.4,95.1,0,0,0,0.5
82,2021-08-09T01:21:00,0.8,西,1.6,西,25.3,95.1,0,0,0,0.5
83,2021-08-09T01:22:00,0.8,西,1.5,西,25.3,95,0,0,0,0.5
84,2021-08-09T01:23:00,0.8,西,1.5,西,25.3,95.3,0,0,0,0.5
85,2021-08-09T01:24:00,0.9,西,1.9,西,25.3,95.4,0,0,0,0.5
86,2021-08-09T01:25:00,0.9,西北西,2,北北西,25.2,95.3,0.5,0.5,0.5,1
87,2021-08-09T01:26:00,1,西北西,2,北北西,25.1,95.3,0.5,0.5,0.5,1
88,2021-08-09T01:27:00,1,西北西,2,北北西,25,95.2,0.5,0.5,0.5,1
89,2021-08-09T01:28:00,0.9,西北西,2,北北西,25.1,95.6,1,1,1,1.5
90,2021-08-09T01:29:00,0.9,西北西,2,北北西,25,95.8,1,1,1,1.5
91,2021-08-09T01:30:00,0.8,北西,2,北北西,25.1,95.9,1,1,1,1.5
92,2021-08-09T01:31:00,0.8,北西,2,北北西,25.1,96.1,1,1,1,1.5
93,2021-08-09T01:32:00,0.8,北西,2,北北西,25.1,96,1,1,1,1.5
94,2021-08-09T01:33:00,0.8,北西,2,北北西,25.1,96,1,1,1,1.5
95,2021-08-09T01:34:00,0.7,北西,2,北北西,25.2,96.3,1,1,1,1.5
96,2021-08-09T01:35:00,0.5,西北西,1.8,北北西,25.1,96.2,0.5,1,1,1.5
97,2021-08-09T01:36:00,0.4,西北西,1.7,北西,25.1,96.1,0.5,1,1,1.5
98,2021-08-09T01:37:00,0.3,西北西,1.3,西,24.9,96,0.5,1,1,1.5
99,2021-08-09T01:38:00,0.3,西,1.2,北北西,24.8,95.8,0,1,1,1.5
100,2021-08-09T01:39:00,0.3,西,1.2,北北西,25.2,96.6,0,1,1,1.5
101,2021-08-09T01:40:00,0.4,西南西,1.2,北北西,25.2,96.7,0,1,1,1.5
102,2021-08-09T01:41:00,0.5,西南西,1.6,南西,25,96.4,0,1,1,1.5
103,2021-08-09T01:42:00,0.5,南西,1.6,南西,24.9,96.2,0,1,1,1.5
104,2021-08-09T01:43:00,0.5,南南西,1.6,南西,24.8,95.9,0,1,1,1.5
105,2021-08-09T01:44:00,0.6,南南西,1.6,南西,24.8,96,0,1,1,1.5
106,2021-08-09T01:45:00,0.6,南南西,1.6,南西,25,96.6,0,1,1,1.5
107,2021-08-09T01:46:00,0.7,南南西,1.6,南西,25.2,96.9,0,1,1,1.5
108,2021-08-09T01:47:00,0.7,南西,1.6,南西,25.2,96.8,0,1,1,1.5
109,2021-08-09T01:48:00,0.8,南西,1.6,南西,25.2,96.8,0,1,1,1.5
110,2021-08-09T01:49:00,0.8,南西,1.7,南西,25.2,96.7,0,1,1,1.5
111,2021-08-09T01:50:00,0.8,南西,2.1,南西,25.2,96.6,0,1,1,1.5
112,2021-08-09T01:51:00,0.9,南西,2.3,南西,25.2,96.6,0,1,1,1.5
113,2021-08-09T01:52:00,1,南西,2.3,南西,25.1,96.4,0,1,1,1.5
114,2021-08-09T01:53:00,1,南西,2.3,南西,25.2,96.6,0,1,1,1.5
115,2021-08-09T01:54:00,1.1,南西,3.7,南,24.9,96.1,0,1,1,1.5
116,2021-08-09T01:55:00,1.1,南西,3.7,南,25.1,96.2,0,1,1,1.5
117,2021-08-09T01:56:00,1.2,南西,3.7,南,25,96.3,0,1,1,1.5
118,2021-08-09T01:57:00,1.2,南南西,3.7,南,24.9,96,0,1,1,1.5
119,2021-08-09T01:58:00,1.2,南南西,3.7,南,25,96.3,0,1,1,1.5
120,2021-08-09T01:59:00,1.2,南南西,3.7,南,25.2,96.8,0,1,1,1.5
121,2021-08-09T02:00:00,1.1,南南西,3.7,南,25.2,96.7,0,1,1,1.5
122,2021-08-09T02:01:00,0.9,南南西,3.7,南,25.1,96.7,0,1,1,1.5
123,2021-08-09T02:02:00,0.8,南,3.7,南,25,96.2,0,1,1,1.5
124,2021-08-09T02:03:00,0.7,南,3.7,南,24.9,96.1,0,1,1,1.5
125,2021-08-09T02:04:00,0.5,南,2,南,25.2,96.3,0,1,1,1.5
126,2021-08-09T02:05:00,0.6,南,2,南,25.2,96.6,0,1,1,1.5
127,2021-08-09T02:06:00,0.5,南南西,2,南,25.2,96.3,0,1,1,1.5
128,2021-08-09T02:07:00,0.4,南南西,1.5,南南西,25.3,96.5,0,1,1,1.5
129,2021-08-09T02:08:00,0.4,南,1.2,南西,25.1,96.3,0,1,1,1.5
130,2021-08-09T02:09:00,0.3,南,1.2,南西,25.2,96.3,0,1,1,1.5
131,2021-08-09T02:10:00,0.3,南,1.2,南西,25.2,96.5,0,1,1,1.5
132,2021-08-09T02:11:00,0.4,南,1.2,南西,25,96,0,1,1,1.5
133,2021-08-09T02:12:00,0.4,南南西,1.2,南西,25.1,96.3,0,1,1,1.5
134,2021-08-09T02:13:00,0.4,南南西,1.2,南西,25.1,96.4,0,1,1,1.5
135,2021-08-09T02:14:00,0.4,南南西,1.2,南西,25.3,96.5,0,1,1,1.5
136,2021-08-09T02:15:00,0.3,南南西,1,南南西,25.3,96.5,0,1,1,1.5
137,2021-08-09T02:16:00,0.4,南,1.7,東南東,25.3,96.5,0,1,1,1.5
138,2021-08-09T02:17:00,0.5,南,1.7,東南東,25.1,96.3,0,1,1,1.5
139,2021-08-09T02:18:00,0.4,南,1.7,東南東,25.2,96,0,1,1,1.5
140,2021-08-09T02:19:00,0.4,南南東,1.7,東南東,25.3,96.3,0,1,1,1.5
141,2021-08-09T02:20:00,0.5,南南東,1.8,西北西,25.2,96.3,0,1,1,1.5
142,2021-08-09T02:21:00,0.5,南東,1.9,南東,25.3,95.7,0,1,1,1.5
143,2021-08-09T02:22:00,0.6,東南東,2.2,東,25.3,95.7,0,1,1,1.5
144,2021-08-09T02:23:00,0.7,東南東,2.8,南東,25.5,95.5,0,1,1,1.5
145,2021-08-09T02:24:00,0.9,東南東,2.8,南東,25.7,95.1,0,1,1,1.5
146,2021-08-09T02:25:00,1,東南東,2.8,南東,25.8,94.4,0,0.5,1,1.5
147,2021-08-09T02:26:00,1,東南東,2.9,東北東,25.8,93.8,0,0.5,1,1.5
148,2021-08-09T02:27:00,1.1,東南東,2.9,東北東,25.9,92.9,0,0.5,1,1.5
149,2021-08-09T02:28:00,1.1,東南東,2.9,東北東,25.8,92.3,0,0,1,1.5
150,2021-08-09T02:29:00,1.2,東南東,2.9,東北東,25.9,91.8,0,0,1,1.5
151,2021-08-09T02:30:00,1.3,東南東,2.9,東北東,25.8,91.3,0.5,0.5,1.5,2
152,2021-08-09T02:31:00,1.4,東南東,3.3,南東,25.7,91.4,1,1,2,2.5
153,2021-08-09T02:32:00,1.5,東南東,3.3,南東,25.6,91.1,2,2,3,3.5
154,2021-08-09T02:33:00,1.5,東南東,4.6,南東,25.6,91,2.5,2.5,3.5,4
155,2021-08-09T02:34:00,1.7,東,6,東南東,25.6,91,3,3,4,4.5
156,2021-08-09T02:35:00,1.9,東南東,6.9,南東,25.7,91.2,3,3,4,4.5
157,2021-08-09T02:36:00,2,東南東,6.9,南東,25.6,91.1,3.5,3.5,4.5,5
158,2021-08-09T02:37:00,2.1,東南東,6.9,南東,25.7,91,3.5,3.5,4.5,5
159,2021-08-09T02:38:00,2.6,東南東,9.5,南東,25.6,91.1,4,4,5,5.5
160,2021-08-09T02:39:00,2.9,東南東,9.5,南東,25.7,91,4,4,5,5.5
161,2021-08-09T02:40:00,3,東南東,9.5,南東,25.7,91,3.5,4,5,5.5
162,2021-08-09T02:41:00,3.1,東南東,9.5,南東,25.7,91,3,4,5,5.5
163,2021-08-09T02:42:00,3.3,東南東,9.5,南東,25.7,90.8,2,4,5,5.5
164,2021-08-09T02:43:00,3.3,東南東,9.5,南東,25.8,90.6,2,4.5,5.5,6
165,2021-08-09T02:44:00,3.2,南東,9.5,南東,25.7,90.5,2,5,6,6.5
166,2021-08-09T02:45:00,3.1,東南東,9.5,南東,25.6,90.6,2,5,6,6.5
167,2021-08-09T02:46:00,3,東南東,9.5,南東,25.8,90.5,2,5.5,6.5,7
168,2021-08-09T02:47:00,3,東南東,9.5,南東,25.7,90.3,2,5.5,6.5,7
169,2021-08-09T02:48:00,2.7,東南東,7.1,南東,25.6,90.3,1.5,5.5,6.5,7
170,2021-08-09T02:49:00,2.4,東南東,5.1,南東,25.6,90.5,1.5,5.5,6.5,7
171,2021-08-09T02:50:00,2.4,東南東,5.1,南東,25.5,90.9,2,6,7,7.5
172,2021-08-09T02:51:00,2.3,東南東,5.1,南東,25.5,91.2,2,6,7,7.5
173,2021-08-09T02:52:00,2.3,東南東,6.2,南東,25.6,91.2,2,6,7,7.5
174,2021-08-09T02:53:00,2.2,東南東,6.2,南東,25.6,91.2,2,6.5,7.5,8
175,2021-08-09T02:54:00,2.1,東南東,6.2,南東,25.6,91.3,1.5,6.5,7.5,8
176,2021-08-09T02:55:00,2.1,南東,6.2,南東,25.5,91.2,1.5,6.5,7.5,8
177,2021-08-09T02:56:00,2,南東,6.2,南東,25.5,91.2,1,6.5,7.5,8
178,2021-08-09T02:57:00,1.9,南東,6.2,南東,25.4,91.6,1,6.5,7.5,8
179,2021-08-09T02:58:00,1.9,南東,6.2,南東,25.4,91.8,1,6.5,7.5,8
180,2021-08-09T02:59:00,1.9,南東,6.2,南東,25.4,92,1,6.5,7.5,8
181,2021-08-09T03:00:00,1.9,南東,6.2,南東,25.4,92.3,0.5,6.5,7.5,8
182,2021-08-09T03:01:00,2,東南東,6.2,南東,25.5,92.3,1,7,8,8.5
183,2021-08-09T03:02:00,2,東南東,5,南東,25.6,92.3,1,7,8,8.5
184,2021-08-09T03:03:00,2,東南東,5,南東,25.6,92.1,0.5,7,8,8.5
185,2021-08-09T03:04:00,2,東南東,5,南東,25.5,92,0.5,7,8,8.5
186,2021-08-09T03:05:00,2,東南東,5,南東,25.5,92.2,0.5,7,8,8.5
187,2021-08-09T03:06:00,2.2,東南東,6.2,東,25.6,92.1,0.5,7,8,8.5
188,2021-08-09T03:07:00,2.3,東南東,6.3,南東,25.6,91.9,0.5,7,8,8.5
189,2021-08-09T03:08:00,2.4,東南東,6.3,南東,25.7,91.7,0.5,7,8,8.5
190,2021-08-09T03:09:00,2.5,東南東,6.3,南東,25.7,91.5,0.5,7,8,8.5
191,2021-08-09T03:10:00,2.6,東南東,6.9,南南東,25.8,91.3,0.5,7,8,8.5
192,2021-08-09T03:11:00,2.8,東南東,8.9,南東,25.8,90.9,0,7,8,8.5
193,2021-08-09T03:12:00,2.9,東南東,8.9,南東,25.8,90.6,0,7,8,8.5
194,2021-08-09T03:13:00,3.2,東南東,8.9,南東,25.9,90.3,0,7,8,8.5
195,2021-08-09T03:14:00,3.4,東南東,8.9,南東,25.8,90.2,0,7,8,8.5
196,2021-08-09T03:15:00,3.7,東南東,8.9,南東,25.9,89.9,0,7,8,8.5
197,2021-08-09T03:16:00,3.7,東南東,8.9,南東,25.8,89.6,0.5,7.5,8.5,9
198,2021-08-09T03:17:00,3.9,東南東,8.9,南東,25.7,89.8,0.5,7.5,8.5,9
199,2021-08-09T03:18:00,4,東南東,8.9,南東,25.7,90.1,0.5,7.5,8.5,9
200,2021-08-09T03:19:00,4.2,東南東,8.9,南東,25.8,90,0.5,7.5,8.5,9
201,2021-08-09T03:20:00,4.3,東南東,8.9,南東,25.8,89.9,0.5,7.5,8.5,9
202,2021-08-09T03:21:00,4.2,東南東,8.4,南東,25.7,89.9,1,8,9,9.5
203,2021-08-09T03:22:00,4.1,東南東,8.4,南東,25.7,89.9,1,8,9,9.5
204,2021-08-09T03:23:00,4.1,東南東,8.9,東北東,25.8,89.8,1.5,8.5,9.5,10
205,2021-08-09T03:24:00,4.1,東南東,8.9,東北東,25.7,90,1.5,8.5,9.5,10
206,2021-08-09T03:25:00,3.9,東南東,8.9,東北東,25.5,90.2,2,9,10,10.5
207,2021-08-09T03:26:00,3.8,東南東,8.9,東北東,25.4,90.8,2,9.5,10.5,11
208,2021-08-09T03:27:00,3.7,東南東,8.9,東北東,25.4,91.1,2.5,10,11,11.5
209,2021-08-09T03:28:00,3.7,東南東,8.9,東北東,25.4,91.5,3,10.5,11.5,12
210,2021-08-09T03:29:00,3.6,東南東,8.9,東北東,25.4,91.9,3.5,11,12,12.5
211,2021-08-09T03:30:00,3.5,東南東,8.9,東北東,25.4,92.2,4,11,12.5,13
212,2021-08-09T03:31:00,3.4,東南東,8.9,東北東,25.4,92.3,4,11,13,13.5
213,2021-08-09T03:32:00,3.5,東南東,8.9,東北東,25.4,92.3,4,10,13,13.5
214,2021-08-09T03:33:00,3.6,東南東,7.7,東南東,25.5,92.3,3.5,9.5,13,13.5
215,2021-08-09T03:34:00,3.7,東南東,7.7,東南東,25.5,92.3,4,9.5,13.5,14
216,2021-08-09T03:35:00,3.7,東南東,7.7,東南東,25.5,92.3,3.5,9.5,13.5,14
217,2021-08-09T03:36:00,3.8,東南東,8.3,東北東,25.5,92.3,3,9,13.5,14
218,2021-08-09T03:37:00,3.9,東南東,8.3,東北東,25.5,92.2,2.5,9,13.5,14
219,2021-08-09T03:38:00,4,東,8.3,東北東,25.6,92.1,2,8.5,13.5,14
220,2021-08-09T03:39:00,3.9,東,8.3,東北東,25.7,91.9,1.5,8.5,13.5,14
221,2021-08-09T03:40:00,4.2,東,9.6,南東,25.6,91.7,1,8.5,13.5,14
222,2021-08-09T03:41:00,4.2,東,9.6,南東,25.6,91.5,1,9,14,14.5
223,2021-08-09T03:42:00,4,東南東,9.6,南東,25.5,91.5,1,9,14,14.5
224,2021-08-09T03:43:00,3.7,東南東,9.6,南東,25.5,91.6,1,8.5,14,14.5
225,2021-08-09T03:44:00,3.5,東南東,9.6,南東,25.5,91.7,0.5,8,14,14.5
226,2021-08-09T03:45:00,3.5,東南東,9.6,南東,25.5,91.7,0.5,8,14,14.5
227,2021-08-09T03:46:00,3.3,東南東,9.6,南東,25.6,91.6,0.5,7.5,14,14.5
228,2021-08-09T03:47:00,3.3,東南東,9.6,南東,25.6,91.5,0.5,7.5,14,14.5
229,2021-08-09T03:48:00,3.3,東南東,9.6,南東,25.7,91.3,0.5,7.5,14,14.5
230,2021-08-09T03:49:00,3.4,東南東,9.6,南東,25.7,91.1,0.5,7.5,14,14.5
231,2021-08-09T03:50:00,3.2,東南東,7.7,東南東,25.7,90.9,0.5,7,14,14.5
232,2021-08-09T03:51:00,3.5,東,10.2,東,25.8,90.7,0,7,14,14.5
233,2021-08-09T03:52:00,3.8,東,10.2,東,25.9,90.3,0,7,14,14.5
234,2021-08-09T03:53:00,3.9,東,10.2,東,25.8,90.1,0,6.5,14,14.5
235,2021-08-09T03:54:00,4.2,東,10.2,東,25.8,89.9,0,6.5,14,14.5
236,2021-08-09T03:55:00,4.3,東,10.2,東,25.8,89.8,0,6.5,14,14.5
237,2021-08-09T03:56:00,4.4,東,10.2,東,25.8,89.9,0,6.5,14,14.5
238,2021-08-09T03:57:00,4.4,東南東,10.2,東,25.7,90,0,6.5,14,14.5
239,2021-08-09T03:58:00,4.3,東南東,10.2,東,25.7,90.1,0,6.5,14,14.5
240,2021-08-09T03:59:00,4.3,東南東,10.2,東,25.8,90.2,0.5,7,14.5,15
241,2021-08-09T04:00:00,4.5,東南東,10.2,東,25.8,90.2,0.5,7,14.5,15
242,2021-08-09T04:01:00,4.2,東南東,10.1,東,25.8,90.2,0.5,6.5,14.5,15
243,2021-08-09T04:02:00,3.8,東南東,9.5,南東,25.6,90.4,1,7,15,15.5
244,2021-08-09T04:03:00,3.7,東南東,9.5,南東,25.7,90.5,1,7,15,15.5
245,2021-08-09T04:04:00,3.4,東南東,8.8,東南東,25.6,90.7,1,7,15,15.5
246,2021-08-09T04:05:00,3.4,東南東,8.8,東南東,25.6,91,1,7,15,15.5
247,2021-08-09T04:06:00,3.3,東南東,7.7,南東,25.6,91.2,1,7,15,15.5
248,2021-08-09T04:07:00,3.2,東南東,7.7,南東,25.6,91.2,1,7,15,15.5
249,2021-08-09T04:08:00,3.2,東南東,7.7,南東,25.6,91.5,1.5,7.5,15.5,16
250,2021-08-09T04:09:00,3.3,東南東,8.3,東北東,25.7,91.4,1,7.5,15.5,16
